Location: Sternwarte ZA, Rosenfeld-Brittheim
(48.2889°N, 8.6789°E)
Time: 23:22:52
(UTC+01:00)

ISS - Pass Details

Date: 01 December 2021
Orbit: 413 x 422 km, 51.6° (Epoch: 24 January)

Event Time Altitude Azimuth Distance (km) Brightness Sun altitude
Rises 16:58:25 0° 275° (W) 2,385 1.2 -4.4°
Reaches altitude 10° 17:00:35 10° 281° (WNW) 1,518 -0.1 -4.8°
Maximum altitude 17:03:53 46° 356° (N) 583 -3.2 -5.2°
Drops below altitude 10° 17:07:11 10° 72° (ENE) 1,513 -1.6 -5.7°
Enters shadow 17:07:45 - 74° (ENE) 1,736 -1.3 -5.8°
